This is the latest recevied weather packets stored in our database for station/object N9ALD. If no packets are shown the sender has not sent any weather packets the latest 10 day(s).
| Time | Temp. | Humidity | Pressure | Rain* | Wind** | Luminosity | Snow |
|---|---|---|---|---|---|---|---|
| 1777552569 | 6.11° C | 80% | 1014.2 hPa | 0 mm | - | 45 W/m² | - |
| 1777552266 | 6.11° C | 79% | 1014.1 hPa | 0 mm | - | 51 W/m² | - |
| 1777551963 | 6.11° C | 81% | 1013.9 hPa | 0 mm | - | 88 W/m² | - |
| 1777551660 | 6.11° C | 82% | 1013.9 hPa | 0 mm | - | 84 W/m² | - |
| 1777551358 | 5.56° C | 83% | 1014 hPa | 0 mm | - | 101 W/m² | - |
| 1777551054 | 5.56° C | 84% | 1013.9 hPa | 0 mm | - | 48 W/m² | - |
| 1777550750 | 5° C | 86% | 1013.8 hPa | 0 mm | - | 53 W/m² | - |
| 1777550447 | 5° C | 86% | 1013.9 hPa | 0 mm | - | 31 W/m² | - |
| 1777550143 | 5° C | 87% | 1013.5 hPa | 0 mm | - | 29 W/m² | - |
| 1777549839 | 5° C | 88% | 1013.3 hPa | 0 mm | - | 28 W/m² | - |
| 1777549536 | 4.44° C | 89% | 1013.5 hPa | 0 mm | - | 26 W/m² | - |
| 1777549232 | 4.44° C | 89% | 1013.3 hPa | 0 mm | - | 24 W/m² | - |
| 1777548929 | 4.44° C | 90% | 1013.2 hPa | 0 mm | - | 22 W/m² | - |
| 1777548626 | 4.44° C | 91% | 1013.2 hPa | 0 mm | - | 21 W/m² | - |
| 1777548323 | 4.44° C | 91% | 1013.2 hPa | 0 mm | - | 18 W/m² | - |
| 1777548021 | 4.44° C | 91% | 1013.2 hPa | 0 mm | - | 16 W/m² | - |
| 1777547721 | 4.44° C | 91% | 1013 hPa | 0 mm | - | 14 W/m² | - |
| 1777547417 | 4.44° C | 91% | 1013 hPa | 0 mm | - | 11 W/m² | - |
| 1777547115 | 4.44° C | 92% | 1012.8 hPa | 0 mm | - | 9 W/m² | - |
| 1777546812 | 4.44° C | 92% | 1012.7 hPa | 0 mm | - | 7 W/m² | - |
| 1777546509 | 4.44° C | 92% | 1012.7 hPa | 0 mm | - | 5 W/m² | - |
| 1777546206 | 4.44° C | 92% | 1012.8 hPa | 0 mm | - | 3 W/m² | - |
| 1777545902 | 4.44° C | 92% | 1012.8 hPa | 0 mm | - | 2 W/m² | - |
| 1777545599 | 4.44° C | 92% | 1012.8 hPa | 0 mm | - | 1 W/m² | - |
| 1777545295 | 4.44° C | 92% | 1012.7 hPa | 0 mm | - | 0 W/m² | - |
* Rain latest hour (hover to see other rain measurements)
** Current wind speed in m/s (hover to see current wind gust speed)